ORBCOMM-X 1 21576U 91050C 25342.72818561 .00000735 00000+0 23024-3 0 9998 2 21576 98.3235 45.5949 0004074 35.2839 324.8621 14.43431165807298 ORBCOMM FM01 1 23545U 95017A 25343.00141800 .00009667 00000+0 93562-3 0 9997 2 23545 69.9631 357.4034 0003472 341.8438 18.2593 14.92995550638574 ORBCOMM FM02 1 23546U 95017B 25342.81239290 .00012883 00000+0 11962-2 0 9994 2 23546 69.9643 16.5285 0004442 1.0366 359.0799 14.94527537638215 ORBCOMM FM08 1 25112U 97084A 25342.82239363 .00003394 00000+0 97174-3 0 9990 2 25112 45.0122 249.1167 0006788 44.9090 315.2310 14.46573739466653 ORBCOMM FM10 1 25113U 97084B 25342.89971897 .00002196 00000+0 64636-3 0 9999 2 25113 45.0140 251.4473 0005768 12.1625 347.9365 14.46320436641806 ORBCOMM FM11 1 25114U 97084C 25342.79691669 .00002915 00000+0 84929-3 0 9991 2 25114 45.0127 252.8978 0006569 13.4515 346.6511 14.46063834466742 ORBCOMM FM12 1 25115U 97084D 25342.82601429 .00003036 00000+0 88235-3 0 9990 2 25115 45.0130 252.4901 0005685 10.2143 349.8823 14.46088145466540 ORBCOMM FM09 1 25116U 97084E 25342.80563124 .00002686 00000+0 78780-3 0 9992 2 25116 45.0137 253.7101 0006962 1.2050 358.8817 14.45931227466742 ORBCOMM FM05 1 25117U 97084F 25342.91275760 .00002375 00000+0 69063-3 0 9990 2 25117 45.0132 248.7197 0003335 7.8646 352.2258 14.46686834465907 ORBCOMM FM06 1 25118U 97084G 25342.82718344 .00003080 00000+0 88066-3 0 9999 2 25118 45.0124 248.6602 0002276 2.6785 45.2705 14.46848294466816 ORBCOMM FM07 1 25119U 97084H 25342.83039022 .00002270 00000+0 65945-3 0 9991 2 25119 45.0123 249.3952 0004189 6.9034 353.1874 14.46857424466803 ORBCOMM FM03 1 25158U 98007B 25342.92263754 .00001763 00000+0 65627-3 0 9994 2 25158 107.9638 134.6494 0046386 301.0055 58.6533 14.35008609449103 ORBCOMM FM04 1 25159U 98007C 25342.94670535 .00001876 00000+0 69331-3 0 9997 2 25159 107.9629 138.0389 0042270 298.2052 61.4823 14.35253829449297 ORBCOMM FM17 1 25413U 98046A 25342.83048561 .00001800 00000+0 66842-3 0 9990 2 25413 44.9923 153.1381 0002255 24.4519 335.6435 14.35523299428263 ORBCOMM FM18 1 25414U 98046B 25342.56258825 .00002898 00000+0 97300-3 0 9998 2 25414 44.9929 67.0569 0003057 102.7038 257.4152 14.39135871429366 ORBCOMM FM19 1 25415U 98046C 25342.98131542 .00001942 00000+0 66964-3 0 9992 2 25415 44.9940 67.3346 0001817 109.8445 59.7244 14.38954722429377 ORBCOMM FM20 1 25416U 98046D 25342.64031499 .00002130 00000+0 74929-3 0 9996 2 25416 44.9944 74.8579 0001478 195.7385 164.3418 14.37650743429363 ORBCOMM FM16 1 25417U 98046E 25342.69917142 .00002732 00000+0 91287-3 0 9994 2 25417 44.9936 63.7675 0003401 126.2240 233.8924 14.39513058429392 ORBCOMM FM15 1 25418U 98046F 25342.64999005 .00002674 00000+0 90113-3 0 9990 2 25418 44.9968 69.6787 0003229 127.8455 232.2686 14.39142052429378 ORBCOMM FM14 1 25419U 98046G 25342.62135823 .00002657 00000+0 88831-3 0 9994 2 25419 44.9955 67.5213 0002025 139.3317 220.7683 14.39558758429344 ORBCOMM FM13 1 25420U 98046H 25342.96244807 .00001724 00000+0 60903-3 0 9990 2 25420 44.9971 75.6456 0003583 94.0272 266.0986 14.38182227428396 ORBCOMM FM21 1 25475U 98053A 25342.94256034 .00001302 00000+0 47536-3 0 9990 2 25475 45.0063 161.6703 0001471 50.9957 309.1022 14.37780038422393 ORBCOMM FM22 1 25476U 98053B 25342.91590841 .00001718 00000+0 59778-3 0 9997 2 25476 45.0057 155.1669 0002907 38.1274 321.9780 14.38948444422437 ORBCOMM FM23 1 25477U 98053C 25342.91832885 .00001456 00000+0 52347-3 0 9999 2 25477 45.0063 163.6323 0002317 34.6438 325.4561 14.38017998422543 ORBCOMM FM24 1 25478U 98053D 25342.92382733 .00001660 00000+0 58289-3 0 9991 2 25478 45.0053 160.2901 0002114 47.0233 313.0793 14.38634937422609 ORBCOMM FM25 1 25479U 98053E 25342.89878270 .00001613 00000+0 56798-3 0 9995 2 25479 45.0052 158.7067 0004491 50.8930 309.2318 14.38604832422892 ORBCOMM FM26 1 25480U 98053F 25342.88985318 .00001374 00000+0 50067-3 0 9995 2 25480 45.0046 156.5112 0006418 64.8663 295.2850 14.37580280422785 ORBCOMM FM27 1 25481U 98053G 25342.81306095 .00002271 00000+0 78044-3 0 9990 2 25481 45.0028 159.2488 0000995 86.8230 273.2733 14.38639939422817 ORBCOMM FM28 1 25482U 98053H 25342.69204554 .00002376 00000+0 81189-3 0 9994 2 25482 45.0044 97.1043 0004228 115.9043 244.2242 14.38772871423482 ORBCOMM FM30 1 25980U 99065A 25342.99880584 .00001636 00000+0 58535-3 0 9994 2 25980 45.0325 342.0213 0005804 186.0885 173.9894 14.37750139359607 ORBCOMM FM31 1 25981U 99065B 25342.98023334 .00001607 00000+0 57672-3 0 9995 2 25981 45.0239 335.5634 0004396 222.3042 137.7468 14.37677044359158 ORBCOMM FM32 1 25982U 99065C 25342.72496191 .00002339 00000+0 83337-3 0 9993 2 25982 45.0160 354.5178 0006640 205.5522 154.4998 14.36736033359692 ORBCOMM FM33 1 25983U 99065D 25342.82873178 .00002047 00000+0 68124-3 0 9992 2 25983 45.0272 248.3746 0007668 230.2990 129.7184 14.40516697361246 ORBCOMM FM36 1 25984U 99065E 25342.74086342 .00002536 00000+0 86498-3 0 9990 2 25984 45.0393 343.3686 0000571 98.9205 261.1709 14.38693846359558 ORBCOMM FM35 1 25985U 99065F 25342.70975872 .00002325 00000+0 81462-3 0 9994 2 25985 45.0400 349.9681 0004539 221.0643 138.9864 14.37604660359893 ORBCOMM FM34 1 25986U 99065G 25342.74572365 .00001962 00000+0 69555-3 0 9994 2 25986 45.0401 350.2645 0002732 176.1394 183.9476 14.37557174360018 ORBCOMM FM38 1 33060U 08031A 25343.00521718 .00002424 00000+0 32726-3 0 9999 2 33060 48.4377 201.6297 0004412 77.5695 282.5715 14.82237765940675 ORBCOMM FM41 1 33061U 08031B 25343.01015691 .00002339 00000+0 31997-3 0 9993 2 33061 48.4410 210.0045 0003600 59.6236 39.6400 14.81795585940152 ORBCOMM FM29 1 33062U 08031C 25343.05589067 .00002658 00000+0 35876-3 0 9995 2 33062 48.4369 217.3618 0005344 58.6027 83.4818 14.81941710940070 ORBCOMM FM39 1 33063U 08031D 25343.16903130 .00002503 00000+0 35187-3 0 9993 2 33063 48.4390 243.0740 0006410 26.9268 333.1979 14.80384260939719 ORBCOMM FM37 1 33064U 08031E 25343.14413683 .00002310 00000+0 32543-3 0 9990 2 33064 48.4379 231.4412 0004887 47.5404 109.1434 14.80583103939962 ORBCOMM FM40 1 33065U 08031F 25343.04718213 .00002877 00000+0 37588-3 0 9999 2 33065 48.4391 212.8832 0005840 65.3446 87.9891 14.83078478940105 VESSELSAT 1 1 37840U 11058C 25342.72855521 .00000447 00000+0 99022-4 0 9998 2 37840 19.9607 117.6996 0013595 307.1247 52.7915 14.11397596730995 ORBCOMM FM109 1 40086U 14040A 25343.16531559 .00001265 00000+0 30586-3 0 9997 2 40086 47.0035 269.7081 0001282 41.0457 319.0525 14.58533070606605 ORBCOMM FM107 1 40087U 14040B 25343.11628684 .00001205 00000+0 29262-3 0 9992 2 40087 47.0054 270.8305 0001474 335.1962 24.8852 14.58609068606672 ORBCOMM FM106 1 40088U 14040C 25342.74271112 .00002660 00000+0 46911-3 0 9997 2 40088 47.0598 80.6118 0016413 161.5386 198.6104 14.70013269609157 ORBCOMM FM111 1 40089U 14040D 25342.99370148 .00004345 00000+0 49169-3 0 9994 2 40089 47.0005 265.5324 0029281 309.9169 49.9155 14.87675264616247 ORBCOMM FM104 1 40090U 14040E 25342.95496910 .00001303 00000+0 32419-3 0 9999 2 40090 47.0058 307.3168 0017115 283.9909 75.9073 14.56997689606100 ORBCOMM FM103 1 40091U 14040F 25343.09838721 .00001135 00000+0 27830-3 0 9990 2 40091 47.0056 271.5714 0002033 343.1803 16.9015 14.58524046589637 ORBCOMM FM114 1 41179U 15081A 25342.97823933 .00000916 00000+0 23143-3 0 9998 2 41179 47.0008 181.0948 0001586 66.7582 293.3471 14.58554938529982 ORBCOMM FM119 1 41180U 15081B 25342.70011453 .00001593 00000+0 37604-3 0 9996 2 41180 47.0004 91.7675 0000891 178.3393 181.7496 14.58491676531194 ORBCOMM FM105 1 41181U 15081C 25342.70671603 .00000740 00000+0 25287-3 0 9993 2 41181 47.0005 113.7302 0001337 4.2380 355.8512 14.45398949525996 ORBCOMM FM110 1 41182U 15081D 25342.96825017 .00001099 00000+0 27042-3 0 9991 2 41182 47.0001 180.6478 0002787 274.3012 85.7555 14.58567023529852 ORBCOMM FM118 1 41183U 15081E 25343.00270788 .00000764 00000+0 19916-3 0 9996 2 41183 47.0023 180.7813 0003076 237.9778 122.0809 14.58563378529965 ORBCOMM FM112 1 41184U 15081F 25342.79991555 .00002563 00000+0 58182-3 0 9991 2 41184 46.9983 90.2766 0000807 41.5512 318.5435 14.58567834531157 ORBCOMM FM113 1 41185U 15081G 25342.77715448 .00001810 00000+0 42166-3 0 9994 2 41185 47.0005 90.7387 0000496 64.3163 295.7774 14.58560228531138 ORBCOMM FM115 1 41186U 15081H 25343.12399177 .00001367 00000+0 29874-3 0 9990 2 41186 46.9991 287.3301 0000513 209.7569 150.3289 14.62909040533386 ORBCOMM FM108 1 41187U 15081J 25343.08216240 .00001526 00000+0 36149-3 0 9995 2 41187 47.0052 0.8030 0002084 13.0316 347.0623 14.58541405532327 ORBCOMM FM117 1 41188U 15081K 25343.11657186 .00001563 00000+0 36910-3 0 9995 2 41188 47.0022 359.3409 0002354 24.8893 335.2106 14.58566764532372 ORBCOMM FM116 1 41189U 15081L 25342.75436109 .00001758 00000+0 41071-3 0 9995 2 41189 47.0021 90.8222 0002481 251.5101 108.5515 14.58559285531132